Weather in St Petersburg

United States     27°46′38″N   82°38′19″W
temp.,
°C
wind,
m/s
gust,
m/s
humid.,
%
clouds,
%
prec.,
mm/h
press.,
hPa
HPBL,
m
18 may, tue
tue1823:00+25ese1011585 0.0 1020921
02:00+23e8117089 0.0 1020709
05:00+22e711742 0.0 1019582
08:00+23e811755 0.0 1020607
11:00+26e79583 0.0 10211155
14:00+29e45460 0.0 1018856
17:00+28ese585895 0.0 1017735
20:00+27e11135942 0.0 1018899
19 may, wed
wed1923:00+24e11136538 0.0 1021870
02:00+23e101370100 0.0 1020876
05:00+22e91272100 0.0 1019792
08:00+23e81171100 0.0 1021706
11:00+26e8106084 0.0 10211417
14:00+29ene8105096 0.0 1019974
17:00+28e12135697 0.0 1018925
20:00+26e91260100 0.0 10201388
20 may, thu
thu2023:00+24e11146910 0.0 10211130
02:00+23e101472100 0.0 10201057
05:00+23e9137090 0.0 1020991
08:00+23e8116767 0.0 10221093
11:00+26e1011543 0.0 10221607
14:00+29ene810445 0.0 1020884
17:00+30e10134216 0.0 10191019
20:00+26e1214604 0.0 10211330
21 may, fri
fri2123:00+24e1012600 0.0 10231348
02:00+23e912685 0.0 10221144
05:00+23e912696 0.0 10231115
08:00+24e9126051 0.0 10241677
11:00+26ene101255100 0.0 10241731
14:00+29ene8114799 0.0 1023929
17:00+29ene111345100 0.0 1021989
20:00+27e10125821 0.0 1022854
22 may, sat
sat2223:00+24e11126691 0.0 10241007
02:00+23ene8116681 0.0 10231048
05:00+22ene686674 0.0 1022705
08:00+22ene57655 0.0 1024441
11:00+25ene5753100 0.0 10241361
14:00+28ne464476 0.0 1021840
17:00+29ne564257 0.0 1019852
20:00+28ene685021 0.0 1019265